Mumbai, India

2:39 PM IST on September 24, 2017 (GMT +0530)
Chhatrapati Shivaji International

Weather History for VABB - February, 2014

Change the Weather History Date:

Thursday, February 13, 2014

  Actual Average Record
Temperature  
Mean Temperature 73 °F -  
Max Temperature 82 °F 88 °F 102 °F (1999)
Min Temperature 64 °F 69 °F 60 °F (2004)
Cooling Degree Days 8    
Growing Degree Days 23 (Base 50)    
Moisture  
Dew Point 61 °F    
Average Humidity 60    
Maximum Humidity 77    
Minimum Humidity 40    
Precipitation  
Precipitation 0.00 in - - ()
Sea Level Pressure  
Sea Level Pressure 29.84 in    
Wind  
Wind Speed 5 mph ()    
Max Wind Speed 14 mph    
Max Gust Speed 22 mph    
Visibility 2.0 miles    
Events      
Averages and records for this station are not official NWS values.
T = Trace of Precipitation, MM = Missing Value Source: Averaged Metar Reports

Daily Weather History Graph

Daily Weather History Graph

Search for Another Location

Airport or City:

Trip Planner

Search our weather history database for the weather conditions in past years. The results will help you decide how hot, cold, wet, or windy it might be!

Date:

Astronomy

Feb. 13, 2014 Rise Set
Actual Time 7:08 AM IST 6:37 PM IST
Civil Twilight 6:45 AM IST 7:00 PM IST
Nautical Twilight 6:19 AM IST 7:26 PM IST
Astronomical Twilight 5:54 AM IST 7:51 PM IST
Moon 5:23 PM IST (2/13) 5:41 AM IST (2/13)
Length of Visible Light 12h 14m
Length of Day
11h 29m
Waxing Gibbous, 97% of the Moon is Illuminated
Feb 13
Waxing Gibbous
Feb 15
Full
Feb 22
Last Quarter
Mar 1
New
Mar 8
First Quarter

Hourly Weather History & Observations

Time (IST) Temp. Heat Index Dew Point Humidity Pressure Visibility Wind Dir Wind Speed Gust Speed Precip Events Conditions
12:10 AM 73.4 °F - 59.0 °F 61% 29.83 in 2.2 mi Calm Calm - N/A   Smoke
12:40 AM 73.4 °F - 59.0 °F 61% 29.83 in 2.2 mi South 3.5 mph - N/A   Smoke
1:10 AM 73.4 °F - 59.0 °F 61% 29.83 in 2.2 mi Calm Calm - N/A   Smoke
2:10 AM 71.6 °F - 60.8 °F 69% 29.80 in 1.9 mi Calm Calm - N/A   Haze
2:30 AM 68 °F - 59 °F 65% 29.81 in 1 mi Calm Calm - -   Smoke
2:40 AM 71.6 °F - 62.6 °F 73% 29.80 in 1.9 mi ENE 3.5 mph - N/A   Haze
3:10 AM 71.6 °F - 60.8 °F 69% 29.80 in 2.2 mi ENE 3.5 mph - N/A   Haze
3:40 AM 71.6 °F - 60.8 °F 69% 29.77 in 2.2 mi East 3.5 mph - N/A   Haze
4:10 AM 69.8 °F - 60.8 °F 73% 29.77 in 2.2 mi East 5.8 mph - N/A   Haze
4:40 AM 69.8 °F - 59.0 °F 68% 29.77 in 2.2 mi East 4.6 mph - N/A   Haze
5:30 AM 66 °F - 60 °F 77% 29.79 in 1 mi Calm Calm - -   Haze
5:40 AM 69.8 °F - 59.0 °F 68% 29.77 in 1.9 mi East 5.8 mph - N/A   Haze
6:10 AM 69.8 °F - 60.8 °F 73% 29.80 in 1.6 mi East 4.6 mph - N/A   Haze
6:40 AM 69.8 °F - 59.0 °F 68% 29.80 in 1.6 mi ESE 5.8 mph - N/A   Haze
7:10 AM 69.8 °F - 60.8 °F 73% 29.80 in 1.6 mi ESE 8.1 mph - N/A   Haze
7:40 AM 69.8 °F - 60.8 °F 73% 29.83 in 1.6 mi ESE 6.9 mph - N/A   Haze
8:10 AM 69.8 °F - 60.8 °F 73% 29.83 in 1.6 mi ESE 6.9 mph - N/A   Haze
8:30 AM 70 °F - 61 °F 65% 29.85 in 1 mi Calm Calm - -   Smoke
8:40 AM 69.8 °F - 60.8 °F 73% 29.83 in 1.9 mi East 5.8 mph - N/A   Haze
9:40 AM 77.0 °F - 60.8 °F 57% 29.86 in 1.9 mi SE 5.8 mph - N/A   Haze
10:10 AM 78.8 °F - 62.6 °F 57% 29.89 in 1.9 mi SE 5.8 mph - N/A   Haze
10:40 AM 78.8 °F - 62.6 °F 57% 29.89 in 1.9 mi South 6.9 mph - N/A   Haze
11:10 AM 78.8 °F - 62.6 °F 57% 29.89 in 2.2 mi South 6.9 mph - N/A   Haze
11:30 AM 81 °F - 63 °F 45% 29.89 in 1 mi South 6.9 mph - -   Smoke
11:40 AM 78.8 °F - 64.4 °F 61% 29.89 in 2.5 mi WSW 10.4 mph - N/A   Haze
12:10 PM 78.8 °F - 64.4 °F 61% 29.89 in 2.5 mi SW 6.9 mph - N/A   Haze
12:40 PM 78.8 °F - 64.4 °F 61% 29.89 in 2.5 mi SW 11.5 mph - N/A   Haze
1:10 PM 80.6 °F 82.3 °F 64.4 °F 58% 29.86 in 2.5 mi SW 13.8 mph - N/A   Smoke
1:40 PM 82.4 °F 83.4 °F 62.6 °F 51% 29.86 in 2.5 mi West 13.8 mph - N/A   Smoke
2:10 PM 80.6 °F 81.8 °F 62.6 °F 54% 29.86 in 2.5 mi West 12.7 mph - N/A   Smoke
2:30 PM 81 °F - 62 °F 43% 29.85 in 1 mi West 5.8 mph - -   Smoke
3:10 PM 80.6 °F 81.8 °F 62.6 °F 54% 29.83 in 2.5 mi West 9.2 mph 20.7 mph N/A   Smoke
3:40 PM 80.6 °F 81.8 °F 62.6 °F 54% 29.83 in 2.5 mi West 8.1 mph 19.6 mph N/A   Smoke
4:10 PM 80.6 °F 81.5 °F 60.8 °F 51% 29.83 in 2.5 mi West 12.7 mph - N/A   Smoke
4:40 PM 80.6 °F 81.5 °F 60.8 °F 51% 29.83 in 2.5 mi West 12.7 mph - N/A   Smoke
5:10 PM 80.6 °F 81.5 °F 60.8 °F 51% 29.83 in 2.5 mi West 10.4 mph 21.9 mph N/A   Smoke
5:30 PM 81 °F - 61 °F 40% 29.84 in 1 mi West 6.9 mph - -   Smoke
5:40 PM 78.8 °F - 60.8 °F 54% 29.83 in 2.5 mi SW 12.7 mph - N/A   Smoke
6:10 PM 77.0 °F - 60.8 °F 57% 29.83 in 2.5 mi WSW 10.4 mph - N/A   Smoke
6:40 PM 77.0 °F - 60.8 °F 57% 29.86 in 2.5 mi WSW 11.5 mph - N/A   Smoke
7:10 PM 77.0 °F - 60.8 °F 57% 29.86 in 2.5 mi WSW 10.4 mph - N/A   Smoke
7:40 PM 77.0 °F - 60.8 °F 57% 29.86 in 2.5 mi SW 5.8 mph - N/A   Smoke
8:10 PM 77.0 °F - 60.8 °F 57% 29.86 in 2.5 mi SW 6.9 mph - N/A   Smoke
8:30 PM 76 °F - 61 °F 51% 29.88 in 1 mi North 3.5 mph - -   Smoke
8:40 PM 77.0 °F - 62.6 °F 61% 29.89 in 2.2 mi SW 5.8 mph - N/A   Smoke
9:10 PM 77.0 °F - 60.8 °F 57% 29.89 in 2.2 mi SW 5.8 mph - N/A   Smoke
9:40 PM 75.2 °F - 60.8 °F 61% 29.89 in 2.2 mi SW 8.1 mph - N/A   Smoke
10:10 PM 75.2 °F - 59.0 °F 57% 29.89 in 2.2 mi SW 5.8 mph - N/A   Smoke
10:40 PM 75.2 °F - 59.0 °F 57% 29.89 in 2.2 mi SSW 5.8 mph - N/A   Smoke
11:30 PM 75 °F - 60 °F 51% 29.91 in 1 mi Calm Calm - -   Smoke
11:40 PM 75.2 °F - 60.8 °F 61% 29.89 in 1.9 mi SSW 5.8 mph - N/A   Smoke